• In Hungary
  • List of Countries
  • For 7 days
  • Water Temperature
  • Satellite Maps
  • Weather Map
  • News
  • Weather Widgets
  • user-avatar
    Login

    Hourly Weather Kostin-log

    Today, 15 October, Monday

    Time Temperature Precipitation Wind Pressure Humidity
    00:00 -1°C° 0 mm 4 mps 746 mmHg 47%
    01:00 -1°C° 0 mm 4 mps 746 mmHg 47%
    02:00 -1°C° 0 mm 4 mps 746 mmHg 47%
    03:00 -1°C° 0 mm 4 mps 746 mmHg 49%
    04:00 -2°C° 0 mm 4 mps 746 mmHg 50%
    05:00 -2°C° 0 mm 3 mps 746 mmHg 54%
    06:00 -1°C° 0 mm 3 mps 746 mmHg 51%
    07:00 -1°C° 0 mm 4 mps 746 mmHg 49%
    08:00 0°C° 0 mm 4 mps 746 mmHg 46%
    09:00 +1°C° 0 mm 4 mps 746 mmHg 42%
    10:00 +4°C° 0 mm 4 mps 746 mmHg 37%
    11:00 +5°C° 0 mm 3 mps 746 mmHg 33%
    12:00 +7°C° 0 mm 3 mps 745 mmHg 31%
    13:00 +7°C° 0 mm 3 mps 745 mmHg 30%
    14:00 +7°C° 0 mm 3 mps 745 mmHg 29%
    15:00 +5°C° 0 mm 3 mps 744 mmHg 32%
    16:00 +4°C° 0 mm 3 mps 744 mmHg 34%
    17:00 +3°C° 0 mm 3 mps 743 mmHg 37%
    18:00 +3°C° 0 mm 3 mps 743 mmHg 38%
    19:00 +3°C° 0 mm 4 mps 743 mmHg 39%
    20:00 +1°C° 0 mm 4 mps 743 mmHg 40%
    21:00 +1°C° 0 mm 5 mps 742 mmHg 41%
    22:00 +1°C° 0 mm 5 mps 742 mmHg 42%
    23:00 +2°C° 0 mm 5 mps 741 mmHg 43%

    Tomorrow, 16 October, Tuesday

    Time Temperature Precipitation Wind Pressure Humidity
    00:00 +1°C° 0.3 mm 6 mps 740 mmHg 47%
    01:00 +1°C° 0.3 mm 6 mps 740 mmHg 50%
    02:00 +1°C° 0.3 mm 6 mps 739 mmHg 54%
    03:00 +1°C° 0.5 mm 6 mps 739 mmHg 57%
    04:00 +1°C° 0.5 mm 6 mps 739 mmHg 60%
    05:00 +1°C° 0.5 mm 6 mps 739 mmHg 63%
    06:00 +1°C° 0.3 mm 5 mps 739 mmHg 67%
    07:00 +1°C° 0.3 mm 5 mps 739 mmHg 70%
    08:00 +1°C° 0.3 mm 4 mps 739 mmHg 73%
    09:00 +3°C° 0 mm 4 mps 739 mmHg 72%
    10:00 +5°C° 0 mm 4 mps 739 mmHg 72%
    11:00 +6°C° 0 mm 4 mps 739 mmHg 71%
    12:00 +7°C° 0.1 mm 5 mps 739 mmHg 69%
    13:00 +8°C° 0.1 mm 5 mps 739 mmHg 66%
    14:00 +9°C° 0.1 mm 5 mps 739 mmHg 63%
    15:00 +8°C° 0.1 mm 5 mps 740 mmHg 65%
    16:00 +6°C° 0.1 mm 4 mps 740 mmHg 67%
    17:00 +5°C° 0.1 mm 4 mps 741 mmHg 68%
    18:00 +4°C° 0 mm 4 mps 741 mmHg 67%
    19:00 +4°C° 0 mm 3 mps 742 mmHg 66%
    20:00 +3°C° 0 mm 3 mps 742 mmHg 65%
    21:00 +2°C° 0 mm 3 mps 743 mmHg 67%
    22:00 +2°C° 0 mm 3 mps 743 mmHg 68%
    23:00 +1°C° 0 mm 3 mps 744 mmHg 69%

    Day after tomorrow, 17 October, Wednesday

    Time Temperature Precipitation Wind Pressure Humidity
    00:00 +1°C° 0 mm 3 mps 744 mmHg 69%
    01:00 0°C° 0 mm 3 mps 744 mmHg 69%
    02:00 0°C° 0 mm 3 mps 744 mmHg 69%
    03:00 0°C° 0 mm 3 mps 744 mmHg 68%
    04:00 0°C° 0 mm 3 mps 744 mmHg 67%
    05:00 +1°C° 0 mm 2 mps 744 mmHg 65%
    06:00 +1°C° 0 mm 3 mps 744 mmHg 61%
    07:00 +2°C° 0 mm 3 mps 744 mmHg 57%
    08:00 +1°C° 0 mm 4 mps 745 mmHg 53%
    09:00 +2°C° 0 mm 5 mps 745 mmHg 49%
    10:00 +5°C° 0 mm 5 mps 745 mmHg 45%
    11:00 +5°C° 0 mm 6 mps 744 mmHg 41%
    12:00 +5°C° 0 mm 7 mps 744 mmHg 41%
    13:00 +5°C° 0 mm 7 mps 744 mmHg 41%
    14:00 +5°C° 0 mm 7 mps 744 mmHg 41%
    15:00 +4°C° 0 mm 6 mps 744 mmHg 47%
    16:00 +3°C° 0 mm 5 mps 744 mmHg 52%
    17:00 +3°C° 0 mm 4 mps 744 mmHg 58%
    18:00 +2°C° 0 mm 3 mps 744 mmHg 63%
    19:00 +1°C° 0 mm 3 mps 745 mmHg 67%
    20:00 +1°C° 0 mm 3 mps 745 mmHg 72%
    21:00 0°C° 0 mm 3 mps 744 mmHg 75%
    22:00 0°C° 0 mm 3 mps 744 mmHg 78%
    23:00 0°C° 0 mm 3 mps 744 mmHg 80%

    18 October, Thursday

    Time Temperature Precipitation Wind Pressure Humidity
    00:00 -1°C° 0 mm 3 mps 744 mmHg 81%
    01:00 -1°C° 0 mm 3 mps 744 mmHg 81%
    02:00 -2°C° 0 mm 4 mps 744 mmHg 82%
    03:00 -2°C° 0 mm 4 mps 744 mmHg 80%
    04:00 -2°C° 0 mm 4 mps 743 mmHg 79%
    05:00 -2°C° 0 mm 5 mps 743 mmHg 77%
    06:00 -2°C° 0 mm 6 mps 743 mmHg 71%
    07:00 -1°C° 0 mm 7 mps 743 mmHg 64%
    08:00 0°C° 0 mm 9 mps 742 mmHg 57%
    09:00 +1°C° 0 mm 9 mps 742 mmHg 52%
    10:00 +2°C° 0 mm 10 mps 741 mmHg 48%
    11:00 +3°C° 0 mm 11 mps 741 mmHg 43%
    12:00 +3°C° 0 mm 11 mps 740 mmHg 44%
    13:00 +3°C° 0 mm 11 mps 740 mmHg 45%
    14:00 +3°C° 0 mm 10 mps 739 mmHg 46%
    15:00 +3°C° 0.1 mm 10 mps 739 mmHg 46%
    16:00 +3°C° 0.1 mm 9 mps 738 mmHg 47%
    17:00 +3°C° 0.1 mm 9 mps 738 mmHg 47%
    18:00 +3°C° 0 mm 9 mps 738 mmHg 47%
    19:00 +3°C° 0 mm 10 mps 738 mmHg 48%
    20:00 +3°C° 0 mm 10 mps 738 mmHg 49%
    21:00 +2°C° 0 mm 11 mps 737 mmHg 51%
    22:00 +2°C° 0 mm 11 mps 737 mmHg 53%
    23:00 +2°C° 0 mm 11 mps 737 mmHg 55%

    19 October, Friday

    Time Temperature Precipitation Wind Pressure Humidity
    00:00 +2°C° 0 mm 11 mps 737 mmHg 55%
    01:00 +2°C° 0 mm 10 mps 737 mmHg 54%
    02:00 +2°C° 0 mm 10 mps 737 mmHg 54%
    03:00 +2°C° 0.1 mm 9 mps 737 mmHg 54%
    04:00 +2°C° 0.1 mm 9 mps 737 mmHg 55%
    05:00 +2°C° 0.1 mm 8 mps 737 mmHg 56%
    06:00 +2°C° 0.1 mm 8 mps 737 mmHg 54%
    07:00 +2°C° 0.1 mm 8 mps 737 mmHg 53%
    08:00 +4°C° 0.1 mm 8 mps 737 mmHg 52%
    09:00 +4°C° 0.1 mm 8 mps 737 mmHg 53%
    10:00 +4°C° 0.1 mm 8 mps 737 mmHg 55%
    11:00 +5°C° 0.1 mm 8 mps 738 mmHg 56%
    12:00 +5°C° 0.2 mm 8 mps 738 mmHg 56%
    13:00 +5°C° 0.2 mm 8 mps 738 mmHg 57%
    14:00 +5°C° 0.2 mm 8 mps 738 mmHg 57%
    15:00 +4°C° 0.2 mm 6 mps 738 mmHg 60%
    16:00 +5°C° 0.2 mm 5 mps 738 mmHg 63%
    17:00 +4°C° 0.2 mm 4 mps 738 mmHg 66%
    18:00 +4°C° 0 mm 3 mps 738 mmHg 68%
    19:00 +3°C° 0 mm 3 mps 738 mmHg 71%
    20:00 +2°C° 0 mm 3 mps 738 mmHg 74%
    21:00 +2°C° 0 mm 3 mps 738 mmHg 75%
    22:00 +3°C° 0 mm 2 mps 738 mmHg 76%
    23:00 +2°C° 0 mm 2 mps 738 mmHg 77%

    20 October, Saturday

    Time Temperature Precipitation Wind Pressure Humidity
    00:00 +2°C° 0 mm 2 mps 738 mmHg 79%
    01:00 +1°C° 0 mm 3 mps 739 mmHg 81%
    02:00 0°C° 0 mm 3 mps 739 mmHg 83%
    03:00 0°C° 0 mm 3 mps 739 mmHg 84%
    04:00 0°C° 0 mm 3 mps 739 mmHg 85%
    05:00 0°C° 0 mm 3 mps 739 mmHg 85%
    06:00 0°C° 0 mm 3 mps 740 mmHg 81%
    07:00 0°C° 0 mm 4 mps 740 mmHg 77%
    08:00 0°C° 0 mm 5 mps 740 mmHg 72%
    09:00 +1°C° 0 mm 5 mps 740 mmHg 67%
    10:00 +2°C° 0 mm 6 mps 741 mmHg 62%
    11:00 +3°C° 0 mm 6 mps 741 mmHg 57%
    12:00 +3°C° 0 mm 6 mps 741 mmHg 57%
    13:00 +3°C° 0 mm 7 mps 741 mmHg 57%
    14:00 +3°C° 0 mm 7 mps 741 mmHg 57%
    15:00 +3°C° 0.1 mm 7 mps 741 mmHg 61%
    16:00 +2°C° 0.1 mm 6 mps 742 mmHg 66%
    17:00 +2°C° 0.1 mm 6 mps 742 mmHg 70%
    18:00 +2°C° 0.2 mm 6 mps 742 mmHg 72%
    19:00 +2°C° 0.2 mm 6 mps 742 mmHg 73%
    20:00 +2°C° 0.2 mm 6 mps 742 mmHg 75%
    21:00 +1°C° 0.1 mm 6 mps 742 mmHg 74%
    22:00 +1°C° 0.1 mm 6 mps 742 mmHg 73%
    23:00 +1°C° 0.1 mm 6 mps 742 mmHg 72%
    Show more